Flag for Aruba Weather past 2 weeks in Oranjestad, Aruba

Now
82 °F

Passing clouds.


Feels Like: 91 °F
Forecast: 81 / 88 °F
Wind: 23 mph from East

Location: Queen Beatrix Airport - Aruba

Current Time: Jul 28, 2015 at 11:00:50 PM

Latest Report: Jul 28, 2015 at 10:00 PM


Visibility: N/A

Pressure: 29.89 "Hg

Humidity: 84%

Dew point: 77 °F

Location of OranjestadLocation

Historic Weather in Oranjestad — Graph

°F

Oranjestad temperature yesterday

Maximum temperature yesterday: 90 °F (at 12:00 PM)
Minimum temperature yesterday: 81 °F (at 2:00 AM)
Average temperature yesterday: 84 °F

Past Weeks' High & Low Weather Summary

 TemperatureHumidityPressure
High91 °F (Jul 21, 1:00 PM)94% (Jul 21, 3:00 PM)30.01 "Hg (Jul 21, 3:00 PM)
Low79 °F (Jul 21, 3:00 PM)23% (Jul 17, 6:00 AM)29.77 "Hg (Jul 26, 4:00 PM)
Average84 °F78%29.91 "Hg
* Reported Jul 13 10:00 PM — Jul 28 10:00 PM, Oranjestad, Weather by CustomWeather, © 2015

Note: Actual official high and low records may vary slightly from our data, if they occured in-between our weather recording intervals... More about our weather records

Advertising

Oranjestad weather history for previous 24 hours

 ConditionsComfort  
Time TempWeatherWind HumidityBarometerVisibility
10:00 PM
Tue, Jul 28
82 °FPassing clouds.23 mph84%29.89 "HgN/A
9:00 PM82 °FPassing clouds.20 mph84%29.89 "HgN/A
8:00 PM82 °FPassing clouds.20 mph84%29.86 "HgN/A
7:00 PM84 °FPassing clouds.22 mph79%29.83 "HgN/A
6:00 PM84 °FPassing clouds.24 mph84%29.83 "HgN/A
5:00 PM86 °FPassing clouds.28 mph79%29.83 "HgN/A
4:00 PM88 °FPassing clouds.24 mph75%29.83 "HgN/A
3:00 PM90 °FScattered clouds.23 mph71%29.83 "HgN/A
2:00 PM90 °FPassing clouds.23 mph71%29.86 "HgN/A
1:00 PM90 °FScattered clouds.23 mph71%29.89 "HgN/A
12:00 PM90 °FScattered clouds.23 mph71%29.92 "HgN/A
11:00 AM90 °FScattered clouds.23 mph71%29.92 "HgN/A
10:00 AM88 °FScattered clouds.28 mph70%29.92 "HgN/A
9:00 AM86 °FScattered clouds.23 mph75%29.92 "HgN/A
8:00 AM84 °FPassing clouds.18 mph79%29.92 "HgN/A
7:00 AM82 °FPassing clouds.16 mph79%29.89 "HgN/A
6:00 AM81 °FPassing clouds.14 mph84%29.89 "HgN/A
5:00 AM81 °FPassing clouds.12 mph84%29.89 "HgN/A
4:00 AM81 °FPassing clouds.16 mph84%29.86 "HgN/A
3:00 AM81 °FPassing clouds.16 mph84%29.86 "HgN/A
1:00 AM82 °FPassing clouds.22 mph84%29.86 "HgN/A
12:00 AM82 °FPassing clouds.20 mph84%29.89 "HgN/A
11:00 PM
Mon, Jul 27
82 °FPassing clouds.21 mph79%29.89 "HgN/A
Weather by CustomWeather, © 2015

See weather overviewHow to use our weather pages